Stevens Point, WI

12:12 PM CST on December 05, 2019 (GMT -0600)
Stevens Point Municipal

Weather History for KSTE - October, 2019

Change the Weather History Date:

Friday, October 11, 2019

  Actual Average Record
Temperature  
Mean Temperature 48 °F -  
Max Temperature 61 °F 58 °F 79 °F (1955)
Min Temperature 34 °F 38 °F 18 °F (1987)
Degree Days  
Heating Degree Days 18    
Moisture  
Dew Point 40 °F    
Average Humidity 82    
Maximum Humidity 100    
Minimum Humidity 56    
Precipitation  
Precipitation 0.08 in - - ()
Sea Level Pressure  
Sea Level Pressure 29.80 in    
Wind  
Wind Speed 12 mph (SSW)    
Max Wind Speed 20 mph    
Max Gust Speed 32 mph    
Visibility 9 miles    
Events Rain , Thunderstorm    
Averages and records for this station are not official NWS values.
T = Trace of Precipitation, MM = Missing Value Source: NWS Daily Summary

Daily Weather History Graph

Daily Weather History Graph

Search for Another Location

Airport or City:

Astronomy

Oct. 11, 2019 Rise Set
Actual Time 7:08 AM CDT 6:21 PM CDT
Civil Twilight 6:38 AM CDT 6:50 PM CDT
Nautical Twilight 6:05 AM CDT 7:23 PM CDT
Astronomical Twilight 5:31 AM CDT 7:57 PM CDT
Moon 5:57 PM CDT (10/11) 4:39 AM CDT (10/11)
Length of Visible Light 12h 11m
Length of Day
11h 13m
Waxing Gibbous, 96% of the Moon is Illuminated
Oct 11
Waxing Gibbous
Oct 13
Full
Oct 21
Last Quarter
Oct 27
New
Nov 4
First Quarter

Hourly Weather History & Observations

Time (CDT) Temp. Windchill Dew Point Humidity Pressure Visibility Wind Dir Wind Speed Gust Speed Precip Events Conditions
12:15 AM 59.0 °F - 59.0 °F 100% 29.85 in 10.0 mi ESE 10.4 mph - N/A   Overcast
12:35 AM 59.0 °F - 59.0 °F 100% 29.84 in 10.0 mi SE 10.4 mph - N/A   Overcast
12:55 AM 59.2 °F - 59.2 °F 100% 29.83 in 10.0 mi SSE 6.9 mph - N/A   Overcast
1:15 AM 59.4 °F - 59.4 °F 100% 29.82 in 10.0 mi SE 9.2 mph - N/A   Overcast
1:35 AM 59.4 °F - 59.4 °F 100% 29.81 in 10.0 mi SE 9.2 mph - N/A   Overcast
1:55 AM 59.5 °F - 59.5 °F 100% 29.81 in 10.0 mi SE 11.5 mph - N/A   Overcast
2:15 AM 59.4 °F - 59.4 °F 100% 29.80 in 10.0 mi SE 11.5 mph - N/A   Overcast
2:35 AM 59.9 °F - 59.9 °F 100% 29.79 in 10.0 mi SE 9.2 mph - N/A   Overcast
2:55 AM 59.9 °F - 59.9 °F 100% 29.78 in 10.0 mi SE 9.2 mph - N/A   Overcast
3:15 AM 59.9 °F - 59.9 °F 100% 29.76 in 10.0 mi SE 9.2 mph - N/A   Overcast
3:35 AM 59.9 °F - 59.9 °F 100% 29.75 in 10.0 mi SE 10.4 mph - N/A   Overcast
3:55 AM 60.1 °F - 60.1 °F 100% 29.74 in 7.0 mi SE 9.2 mph 16.1 mph N/A   Overcast
4:15 AM 60.4 °F - 60.4 °F 100% 29.74 in 7.0 mi SSE 6.9 mph 18.4 mph N/A   Overcast
4:35 AM 60.3 °F - 60.3 °F 100% 29.74 in 3.0 mi SSE 8.1 mph - N/A   Drizzle
4:55 AM 60.1 °F - 60.1 °F 100% 29.73 in 2.5 mi SE 8.1 mph - N/A   Drizzle
5:15 AM 60.3 °F - 60.3 °F 100% 29.72 in 3.0 mi SE 8.1 mph - N/A   Overcast
5:35 AM 60.4 °F - 60.4 °F 100% 29.71 in 5.0 mi SE 8.1 mph - N/A   Overcast
5:55 AM 60.8 °F - 60.8 °F 100% 29.71 in 3.0 mi SSE 8.1 mph - 0.06 in Rain , Thunderstorm Light Thunderstorms and Rain
6:15 AM 60.8 °F - 60.8 °F 100% 29.71 in 7.0 mi SSE 11.5 mph - N/A Rain Light Rain
6:35 AM 60.8 °F - 60.8 °F 100% 29.70 in 7.0 mi SSE 11.5 mph 17.3 mph 0.01 in   Overcast
6:55 AM 61.2 °F - 61.2 °F 100% 29.70 in 7.0 mi SSE 9.2 mph 18.4 mph 0.01 in Thunderstorm Overcast
7:15 AM 61.3 °F - 61.3 °F 100% 29.70 in 7.0 mi SSE 12.7 mph 16.1 mph N/A   Light Drizzle
7:35 AM 61.5 °F - 61.5 °F 100% 29.70 in 7.0 mi South 11.5 mph 17.3 mph N/A Rain Light Rain
7:55 AM 55.9 °F - 55.9 °F 100% 29.72 in 7.0 mi WSW 17.3 mph 26.5 mph 0.01 in Rain Light Rain
8:35 AM 45.9 °F 38.5 °F 45.9 °F 100% 29.78 in 10.0 mi WSW 18.4 mph 27.6 mph N/A   Overcast
8:55 AM 43.9 °F 36.8 °F 43.7 °F 99% 29.78 in 10.0 mi WSW 15.0 mph 19.6 mph N/A   Overcast
9:15 AM 42.6 °F 35.9 °F 42.6 °F 100% 29.78 in 10.0 mi WSW 12.7 mph - N/A   Overcast
9:35 AM 42.3 °F 35.9 °F 41.4 °F 97% 29.78 in 10.0 mi WSW 11.5 mph 16.1 mph N/A   Overcast
9:55 AM 42.3 °F 36.3 °F 40.8 °F 95% 29.78 in 10.0 mi WSW 10.4 mph 16.1 mph N/A   Overcast
10:15 AM 41.9 °F 35.9 °F 39.6 °F 91% 29.79 in 10.0 mi WSW 10.4 mph 17.3 mph N/A   Overcast
10:35 AM 41.9 °F 34.0 °F 38.5 °F 88% 29.79 in 10.0 mi WSW 16.1 mph 23.0 mph N/A   Overcast
10:55 AM 41.2 °F 35.0 °F 37.6 °F 87% 29.81 in 10.0 mi SW 10.4 mph 17.3 mph N/A   Overcast
11:15 AM 41.0 °F 34.7 °F 37.2 °F 86% 29.82 in 10.0 mi WSW 10.4 mph 17.3 mph N/A   Overcast
11:35 AM 40.8 °F 34.5 °F 36.9 °F 86% 29.79 in 10.0 mi West 10.4 mph 16.1 mph N/A   Overcast
11:55 AM 40.1 °F 33.6 °F 36.7 °F 88% 29.78 in 10.0 mi West 10.4 mph 19.6 mph N/A   Overcast
12:15 PM 40.5 °F 34.1 °F 35.6 °F 83% 29.78 in 10.0 mi West 10.4 mph 19.6 mph N/A   Overcast
12:35 PM 40.1 °F 32.7 °F 36.1 °F 86% 29.81 in 10.0 mi WSW 12.7 mph 21.9 mph N/A Rain Light Rain
12:55 PM 40.1 °F 32.4 °F 34.5 °F 80% 29.82 in 10.0 mi WSW 13.8 mph 17.3 mph N/A   Overcast
1:15 PM 39.6 °F 31.7 °F 33.8 °F 80% 29.81 in 10.0 mi West 13.8 mph 17.3 mph N/A   Overcast
1:35 PM 40.1 °F 32.7 °F 34.0 °F 79% 29.81 in 10.0 mi WSW 12.7 mph 20.7 mph N/A   Overcast
1:55 PM 40.1 °F 31.6 °F 32.7 °F 75% 29.81 in 10.0 mi West 16.1 mph 25.3 mph N/A   Overcast
2:15 PM 40.1 °F 32.4 °F 31.8 °F 72% 29.80 in 10.0 mi WSW 13.8 mph 21.9 mph N/A   Overcast
2:35 PM 40.1 °F 32.4 °F 30.9 °F 70% 29.80 in 10.0 mi WSW 13.8 mph 20.7 mph N/A   Overcast
2:55 PM 40.3 °F 31.9 °F 30.0 °F 67% 29.81 in 10.0 mi WSW 16.1 mph 21.9 mph N/A   Overcast
3:15 PM 39.9 °F 32.1 °F 30.0 °F 68% 29.81 in 10.0 mi WSW 13.8 mph 24.2 mph N/A   Overcast
3:35 PM 38.8 °F 29.7 °F 29.3 °F 69% 29.81 in 10.0 mi WSW 17.3 mph 26.5 mph N/A   Overcast
3:55 PM 38.1 °F 29.5 °F 29.5 °F 71% 29.81 in 10.0 mi WSW 15.0 mph 27.6 mph N/A   Overcast
4:15 PM 37.8 °F 29.8 °F 27.7 °F 67% 29.82 in 10.0 mi WSW 12.7 mph 21.9 mph N/A   Overcast
4:35 PM 37.6 °F 28.4 °F 27.3 °F 66% 29.83 in 10.0 mi SW 16.1 mph 23.0 mph N/A   Overcast
4:55 PM 37.6 °F 28.4 °F 26.8 °F 65% 29.83 in 10.0 mi WSW 16.1 mph 24.2 mph N/A   Overcast
5:15 PM 37.8 °F 29.0 °F 26.4 °F 64% 29.83 in 10.0 mi WSW 15.0 mph 24.2 mph N/A   Overcast
5:35 PM 37.8 °F 29.0 °F 25.7 °F 62% 29.83 in 10.0 mi WSW 15.0 mph 20.7 mph N/A   Overcast
5:55 PM 37.4 °F 28.5 °F 23.9 °F 58% 29.83 in 10.0 mi WSW 15.0 mph 27.6 mph N/A   Overcast
6:15 PM 37.0 °F 26.7 °F 23.5 °F 58% 29.84 in 10.0 mi WSW 19.6 mph 26.5 mph N/A   Overcast
6:35 PM 36.9 °F 27.5 °F 23.9 °F 59% 29.84 in 10.0 mi SW 16.1 mph 25.3 mph N/A   Overcast
6:55 PM 36.5 °F 27.0 °F 23.4 °F 59% 29.85 in 10.0 mi SW 16.1 mph 32.2 mph N/A   Overcast
7:15 PM 36.5 °F 26.7 °F 22.5 °F 57% 29.85 in 10.0 mi WSW 17.3 mph 29.9 mph N/A   Overcast
7:35 PM 36.1 °F 27.7 °F 23.0 °F 59% 29.86 in 10.0 mi SW 12.7 mph 24.2 mph N/A   Overcast
7:55 PM 36.1 °F 25.9 °F 22.6 °F 58% 29.86 in 10.0 mi SW 18.4 mph 28.8 mph N/A   Overcast
8:15 PM 36.1 °F 27.3 °F 21.7 °F 56% 29.86 in 10.0 mi WSW 13.8 mph 27.6 mph N/A   Overcast
8:35 PM 35.6 °F 26.6 °F 23.0 °F 60% 29.86 in 10.0 mi SW 13.8 mph 27.6 mph N/A   Overcast
8:55 PM 35.6 °F 25.9 °F 22.8 °F 60% 29.86 in 10.0 mi SW 16.1 mph 23.0 mph N/A   Overcast
9:15 PM 35.6 °F 26.6 °F 23.0 °F 60% 29.86 in 10.0 mi SW 13.8 mph 19.6 mph N/A   Overcast
9:35 PM 35.2 °F 26.6 °F 23.0 °F 61% 29.86 in 10.0 mi SW 12.7 mph - N/A   Overcast
9:55 PM 35.2 °F 26.6 °F 23.2 °F 62% 29.85 in 10.0 mi SW 12.7 mph 24.2 mph N/A   Overcast
10:15 PM 35.2 °F 26.6 °F 23.4 °F 62% 29.84 in 10.0 mi SW 12.7 mph - N/A   Overcast
10:35 PM 35.1 °F 26.4 °F 23.7 °F 63% 29.84 in 10.0 mi SW 12.7 mph 19.6 mph N/A   Overcast
10:55 PM 34.9 °F 25.7 °F 23.9 °F 64% 29.83 in 10.0 mi SW 13.8 mph 20.7 mph N/A   Overcast
11:15 PM 34.7 °F 25.1 °F 24.8 °F 67% 29.82 in 10.0 mi SW 15.0 mph 20.7 mph N/A   Overcast
11:35 PM 34.7 °F 24.7 °F 24.8 °F 67% 29.82 in 10.0 mi SW 16.1 mph 20.7 mph N/A   Overcast
11:55 PM 34.7 °F 25.9 °F 25.5 °F 69% 29.81 in 10.0 mi SW 12.7 mph 19.6 mph N/A   Light Drizzle